User: anonymous   Login
Location: Unspecified
(0.0000°N, 0.0000°E)
Time: 07:01:40
(UTC+00:00)
Language:

Falconsat - Orbit

View from above orbital plane
View from above orbital plane
View from above satellite
View from above satellite

Ground track
Ground track

The orbit data is extracted from the following two-line orbital elements,

1 26064U 00004D   19078.46282222 -.00000023 +00000-0 +12240-4 0  9994
2 26064 100.1943 204.8061 0037219 319.3735 040.4669 14.36176290003003
Epoch (UTC): 19 March 2019 11:06:27
Eccentricity: 0.0037219
inclination: 100.1943°
perigee height: 744 km
apogee height: 798 km
right ascension of ascending node: 204.8061°
argument of perigee: 319.3735°
revolutions per day: 14.36176290
mean anomaly at epoch: 40.4669°
orbit number at epoch: 300

The dashed part of the orbit path shows where the satellite is in the earth's shadow,  

DLR